Regional Weather Roundup
Issued by NWS

Home | Current Version | Previous Version | Text Only | Print | Product List | Glossary On
Versions: 1 2 3 4 5 6 7 8 9 10 11 12 13 14 15 16 17 18 19 20 21 22 23 24 25 26 27 28 29 30 31 32 33 34 35 36 37 38 39 40 41 42 43 44 45 46 47 48 49 50
000
ASUS44 KJAN 271410
RWRMS

MISSISSIPPI HOURLY WEATHER ROUNDUP
NATIONAL WEATHER SERVICE JACKSON MS
900 AM CDT FRI MAY 27 2016

NOTE: "FAIR: INDICATES FEW OR NO CLOUDS BELOW 12,000 FEET WITH NO
SIGNIFICANT WEATHER AND/OR OBSTRUCTIONS TO VISIBILITY.

MSZ001>002-007>008-010>013-018>021-025>028-034>036-271500-
NORTHWEST MISSISSIPPI

CITY           SKY/WX    TMP DP  RH WIND       PRES   REMARKS
BATESVILLE     FAIR      77  67  71 S9G18     29.97R
CLARKSDALE     MOSUNNY   75  75 100 SE13      29.93S
CLEVELAND      PTSUNNY   77  74  93 S13G25    29.92S
GREENWOOD      CLOUDY    74  68  81 S9        29.96R
GREENVILLE     MOSUNNY   78  70  76 S16       29.92S
OLIVE BRANCH   CLOUDY    72  72 100 S7        29.97R
OXFORD         FAIR      73  66  78 S8G18     30.01R
TUNICA         CLOUDY    73  70  88 SE12G17   29.94F
WINONA         FAIR      75  69  79 S8        29.98R
$$

MSZ003>006-009-014>017-022>024-029>033-037>039-271500-
NORTHEAST MISSISSIPPI

CITY           SKY/WX    TMP DP  RH WIND       PRES   REMARKS
COLUMBUS AFB   CLOUDY    77  69  77 S7        30.00S
CORINTH        FAIR      73  64  73 S8G15     30.00R
GOLDN TRIANGLE SUNNY     75  66  73 S9        30.00S
STARKVILLE     FAIR      73  68  83 S8        29.99S
TUPELO         CLOUDY    75  66  73 SE12      30.00R
$$

MSZ040-058-271500-
CENTRAL MISSISSIPPI

CITY           SKY/WX    TMP DP  RH WIND       PRES   REMARKS
JACKSON INTL   CLOUDY    76  70  82 S10       29.97R
JACKSON HAWKNS CLOUDY    76  70  82 S13G21    29.97R
MADISON        FAIR      73  70  88 S6        29.97R
MERIDIAN KEY   CLOUDY    80  70  71 S9        30.00F
MERIDIAN NAS   CLOUDY    78  69  73 SE9       30.01F
VICKSBURG TVR  CLOUDY    79  71  76 S10       29.95R
VICKSBURG VKS  MOSUNNY   77  72  83 SE5       29.96R
$$

MSZ059>079-271500-
SOUTH MISSISSIPPI

CITY           SKY/WX    TMP DP  RH WIND       PRES   REMARKS
BROOKHAVEN     PTSUNNY  N/A N/A N/A SE7       29.99R
COLUMBIA       FAIR      79  72  78 S9        30.02R
HATTIESBURG    CLOUDY    79  71  76 SE13      29.99F
MCCOMB         CLOUDY    76  71  85 S10       29.99R
NATCHEZ        PTSUNNY   75  70  83 S13G20    29.97R
PINE BELT      CLOUDY    75  70  83 S7        30.00S
$$

MSZ080>082-271500-
COASTAL MISSISSIPPI

CITY           SKY/WX    TMP DP  RH WIND       PRES   REMARKS
BAY ST LOUIS   MOSUNNY   81  64  57 MISG      29.99R
BILOXI         SUNNY     82  67  60 S14       29.99S
PASCAGOULA     MOSUNNY   81  69  67 SE16      30.01S
GULFPORT       MOSUNNY   83  64  52 SE15      29.98F
$$



USA.gov is the U.S. government's official web portal to all federal, state and local government web resources and services.